Date String (YYYY-MM-DD hh:mm:ss) UTC,Instrument flags,Ambient pressure (hPa),Sample flow (lpm),Bypass flow (lpm),Sample temperature (°C),Ambient temperature (°C),ASC tube jacket temperature (°C),LED temperature (°C),Box temperature (°C),Sample RH (%),Span deviation,Mass concentration (μg/m³),Mass concentration (μg/m³),Mass concentration (μg/m³)
DateTimeUTC,F1_M11,P_M11,Q1_M11,Q2_M11,T1_M11,T2_M11,T3_M11,T4_M11,T5_M11,U1_M11,ZSPAN_M11,X0_M11,X2_M11,X1_M11
2023-01-19 07:00:00,,0818.6,4.99,0.00,22.2,20.6,00.0,31.1,23.8,10.4,0000.0,0005.30,0003.56,0003.28
2023-01-19 07:01:00,,0818.6,5.02,0.00,22.2,21.0,00.0,31.1,23.9,09.5,0000.0,0005.28,0003.53,0003.25
2023-01-19 07:02:00,,0818.5,4.99,0.00,22.3,21.9,00.0,31.1,24.1,08.9,0000.0,0005.18,0003.48,0003.21
2023-01-19 07:03:00,,0818.6,4.99,0.00,22.4,22.7,00.0,31.1,24.4,08.1,0000.0,0004.91,0003.37,0003.11
2023-01-19 07:04:00,,0818.6,5.01,0.00,22.5,22.7,00.0,31.1,24.4,09.2,0000.0,0004.64,0003.20,0002.87
2023-01-19 07:05:00,,0818.6,4.99,0.00,22.5,22.2,00.0,31.1,24.4,09.7,0000.0,0005.68,0003.16,0002.82
2023-01-19 07:06:00,,0818.6,5.01,0.00,22.5,21.8,00.0,31.2,24.3,09.7,0000.0,0005.73,0003.14,0002.76
2023-01-19 07:07:00,,0818.6,5.00,0.00,22.5,21.5,00.0,31.2,24.2,09.4,0000.0,0005.77,0003.15,0002.76
2023-01-19 07:08:00,,0818.5,5.00,0.00,22.4,21.2,00.0,31.2,24.2,09.3,0000.0,0005.88,0003.16,0002.79
2023-01-19 07:09:00,,0818.5,4.99,0.00,22.4,21.0,00.0,31.2,24.1,09.5,0000.0,0006.82,0003.16,0002.79
2023-01-19 07:10:00,,0818.5,4.98,0.00,22.4,20.8,00.0,31.2,24.1,09.8,0000.0,0006.87,0003.09,0002.73
2023-01-19 07:11:00,,0818.5,5.00,0.00,22.4,20.8,00.0,31.2,24.0,09.5,0000.0,0006.71,0003.02,0002.67
2023-01-19 07:12:00,,0818.6,5.01,0.00,22.3,20.7,00.0,31.1,24.0,09.2,0000.0,0006.82,0003.07,0002.71
2023-01-19 07:13:00,,0818.6,4.99,0.00,22.3,20.6,00.0,31.1,24.0,08.9,0000.0,0006.83,0003.10,0002.76
2023-01-19 07:14:00,,0818.6,4.99,0.00,22.3,20.6,00.0,31.1,24.0,08.6,0000.0,0006.97,0003.17,0002.86
2023-01-19 07:15:00,,0818.6,5.00,0.00,22.3,20.6,00.0,31.1,23.9,08.8,0000.0,0006.81,0003.16,0002.85
2023-01-19 07:16:00,,0818.5,5.01,0.00,22.2,20.5,00.0,31.1,23.8,09.2,0000.0,0005.66,0003.16,0002.80
2023-01-19 07:17:00,,0818.5,5.01,0.00,22.2,20.9,00.0,31.1,23.9,08.8,0000.0,0005.43,0003.12,0002.73
2023-01-19 07:18:00,,0818.6,4.99,0.00,22.3,21.9,00.0,31.1,24.2,08.2,0000.0,0005.36,0003.03,0002.65
2023-01-19 07:19:00,,0818.6,5.00,0.00,22.4,22.8,00.0,31.1,24.4,08.2,0000.0,0005.50,0002.93,0002.56
2023-01-19 07:20:00,,0818.6,4.99,0.00,22.5,22.7,00.0,31.1,24.5,08.0,0000.0,0004.28,0002.77,0002.43
2023-01-19 07:21:00,,0818.5,5.03,0.00,22.5,22.3,00.0,31.1,24.4,07.5,0000.0,0004.02,0002.56,0002.19
2023-01-19 07:22:00,,0818.6,5.01,0.00,22.5,21.9,00.0,31.2,24.3,07.4,0000.0,0003.77,0002.35,0002.01
2023-01-19 07:23:00,,0818.6,4.99,0.00,22.5,21.6,00.0,31.2,24.3,07.6,0000.0,0003.52,0002.23,0001.91
2023-01-19 07:24:00,,0818.6,4.98,0.00,22.5,21.3,00.0,31.2,24.2,07.4,0000.0,0003.50,0002.18,0001.85
2023-01-19 07:25:00,,0818.5,5.00,0.00,22.5,21.1,00.0,31.2,24.2,07.3,0000.0,0004.20,0002.12,0001.78
2023-01-19 07:26:00,,0818.5,5.00,0.00,22.4,21.0,00.0,31.2,24.2,07.2,0000.0,0004.51,0002.03,0001.67
2023-01-19 07:27:00,,0818.5,4.99,0.00,22.4,20.9,00.0,31.2,24.1,07.1,0000.0,0004.64,0001.81,0001.49
2023-01-19 07:28:00,,0818.6,5.00,0.00,22.4,20.9,00.0,31.2,24.1,07.0,0000.0,0005.01,0001.63,0001.33
2023-01-19 07:29:00,,0818.6,4.99,0.00,22.4,20.8,00.0,31.2,24.1,07.0,0000.0,0004.89,0001.53,0001.25
2023-01-19 07:30:00,,0818.5,4.99,0.00,22.4,20.8,00.0,31.2,24.1,06.9,0000.0,0004.32,0001.41,0001.15
2023-01-19 07:31:00,,0818.5,5.00,0.00,22.4,20.8,00.0,31.2,24.1,06.8,0000.0,0004.14,0001.30,0001.06
2023-01-19 07:32:00,,0818.5,5.00,0.00,22.3,20.8,00.0,31.2,24.0,06.6,0000.0,0004.04,0001.24,0001.01
2023-01-19 07:33:00,,0818.5,5.02,0.00,22.3,20.8,00.0,31.1,24.0,06.6,0000.0,0003.96,0001.18,0000.96
2023-01-19 07:34:00,,0818.5,5.00,0.00,22.3,20.7,00.0,31.1,24.0,06.7,0000.0,0003.88,0001.11,0000.89
2023-01-19 07:35:00,,0818.5,5.00,0.00,22.3,20.7,00.0,31.1,24.0,06.7,0000.0,0003.71,0001.02,0000.83
2023-01-19 07:36:00,,0818.5,5.00,0.00,22.3,21.0,00.0,31.1,24.0,06.7,0000.0,0003.28,0000.96,0000.78
2023-01-19 07:37:00,,0818.6,5.01,0.00,22.4,21.9,00.0,31.1,24.2,06.6,0000.0,0003.90,0000.91,0000.75
2023-01-19 07:38:00,,0818.6,5.01,0.00,22.5,22.7,00.0,31.1,24.5,06.7,0000.0,0003.42,0000.87,0000.72
2023-01-19 07:39:00,,0818.6,4.99,0.00,22.6,22.9,00.0,31.2,24.6,06.6,0000.0,0002.72,0000.84,0000.71
2023-01-19 07:40:00,,0818.6,4.99,0.00,22.6,22.4,00.0,31.2,24.5,06.4,0000.0,0002.67,0000.82,0000.70
2023-01-19 07:41:00,,0818.6,5.01,0.00,22.6,21.9,00.0,31.2,24.4,06.3,0000.0,0002.69,0000.81,0000.68
2023-01-19 07:42:00,,0818.5,5.01,0.00,22.6,21.5,00.0,31.2,24.3,06.4,0000.0,0002.84,0000.80,0000.67
2023-01-19 07:43:00,,0818.5,5.00,0.00,22.6,21.3,00.0,31.2,24.3,06.6,0000.0,0003.08,0000.78,0000.66
2023-01-19 07:44:00,,0818.6,5.01,0.00,22.5,21.0,00.0,31.2,24.2,06.5,0000.0,0003.08,0000.78,0000.66
2023-01-19 07:45:00,,0818.6,5.00,0.00,22.5,20.8,00.0,31.2,24.1,06.5,0000.0,0003.11,0000.80,0000.66
2023-01-19 07:46:00,,0818.6,5.01,0.00,22.4,20.7,00.0,31.2,24.1,06.6,0000.0,0003.15,0000.81,0000.66
2023-01-19 07:47:00,,0818.5,5.00,0.00,22.4,20.7,00.0,31.2,24.0,06.6,0000.0,0003.40,0000.78,0000.66
2023-01-19 07:48:00,,0818.5,5.01,0.00,22.4,20.6,00.0,31.2,24.0,06.5,0000.0,0002.66,0000.78,0000.65
2023-01-19 07:49:00,,0818.5,5.00,0.00,22.4,20.5,00.0,31.2,24.0,06.6,0000.0,0002.64,0000.77,0000.65
2023-01-19 07:50:00,,0818.5,5.01,0.00,22.3,20.5,00.0,31.2,23.9,06.7,0000.0,0002.64,0000.77,0000.65
2023-01-19 07:51:00,,0818.6,4.98,0.00,22.3,20.4,00.0,31.2,23.9,06.8,0000.0,0002.65,0000.79,0000.66
2023-01-19 07:52:00,,0818.7,4.99,0.00,22.3,20.4,00.0,31.1,23.9,06.9,0000.0,0002.68,0000.82,0000.69
2023-01-19 07:53:00,,0818.7,4.99,0.00,22.2,20.2,00.0,31.1,23.8,06.8,0000.0,0002.67,0000.85,0000.71
2023-01-19 07:54:00,,0818.7,5.03,0.00,22.2,20.2,00.0,31.1,23.7,06.7,0000.0,0002.40,0000.86,0000.71
2023-01-19 07:55:00,,0818.7,5.01,0.00,22.2,21.2,00.0,31.0,23.9,06.8,0000.0,0002.44,0000.88,0000.71
2023-01-19 07:56:00,,0818.7,5.00,0.00,22.3,22.2,00.0,31.0,24.2,06.7,0000.0,0002.41,0000.87,0000.71
2023-01-19 07:57:00,,0818.5,4.99,0.00,22.4,22.4,00.0,31.1,24.3,06.7,0000.0,0002.39,0000.86,0000.71
2023-01-19 07:58:00,,0818.4,4.99,0.00,22.4,21.9,00.0,31.1,24.2,06.7,0000.0,0001.93,0000.87,0000.72
2023-01-19 07:59:00,,0818.4,5.00,0.00,22.3,21.3,00.0,31.1,24.0,06.7,0000.0,0001.47,0000.89,0000.73
